Погода в Прохладном

Россия / Свердловская область     56°44′50″N   60°56′19″E
темп.,
°C
ветер,
м/с
пор.,
м/с
влажн.,
%
обл.,
%
осадки,
мм/ч
давл.,
гПа
погр.,
м
9 августа, вт
вт923:00+20с127738 0.1 101934
02:00+17всв11865 0.0 101911
05:00+16ссв00905 0.0 101911
08:00+21сз11725 0.0 1019185
11:00+26св23501 0.0 10191265
14:00+28всв33395 0.0 10182215
17:00+28в33385 0.0 10172285
20:00+23вюв22645 0.0 101827
10 августа, ср
ср1023:00+18ююв11735 0.0 101811
02:00+17зюз11785 0.0 101911
05:00+15ссз118462 0.0 101811
08:00+21юз016571 0.0 1019145
11:00+27ююв114663 0.0 10181230
14:00+28ююв1137100 0.0 10182234
17:00+28ю113694 0.0 10172283
20:00+23ююв225885 0.0 101738
11 августа, чт
чт1123:00+19ююз227012 0.0 101719
02:00+17зюз117599 0.0 101711
05:00+16ююз127617 0.0 101612
08:00+21ююз24625 0.0 1017194
11:00+26юз344798 0.0 10151207
14:00+29зюз453773 0.0 10142689
17:00+18св1194100 3.4 101551
20:00+19юз2490100 0.2 101498
12 августа, пт
пт1223:00+16зсз3996100 1.6 1015423
02:00+13зсз399710 0.1 1016397
05:00+11зсз4109751 0.1 1017423
08:00+13зсз51087100 0.0 1017575
11:00+19зсз61052100 0.0 10171470
14:00+21зсз6843100 0.0 10161922
17:00+20з594947 0.0 10161394
20:00+18з410607 0.0 1016755
13 августа, сб
сб1323:00+17з411629 0.0 1015545
02:00+16з513701 0.0 1014492
05:00+16з51373100 0.0 1014521
08:00+17зсз611710 0.0 10151000
11:00+21сз711470 0.0 10151918
14:00+23сз69360 0.0 10162167
17:00+23сз58370 0.0 10162177
20:00+18сз49515 0.0 1018355